User: anonymous   Login
Location: Unspecified
(48.5670°N, 0.0000°E)
Time: 02:32:26
(UTC+00:00)
Language:

Tiros 1 despin weight - Orbit

View from above orbital plane
View from above orbital plane
View from above satellite
View from above satellite

Ground track
Ground track

The orbit data is extracted from the following two-line orbital elements,

1   115U 60002D   19202.81835724 -.00000134  00000-0  11085-4 0  9995
2   115  48.1675  68.7787 0034662 227.9211 131.8752 14.83455258163730
Epoch (UTC): 21 July 2019 19:38:26
Eccentricity: 0.0034662
inclination: 48.1675°
perigee height: 594 km
apogee height: 642 km
right ascension of ascending node: 68.7787°
argument of perigee: 227.9211°
revolutions per day: 14.83455258
mean anomaly at epoch: 131.8752°
orbit number at epoch: 16373

The dashed part of the orbit path shows where the satellite is in the earth's shadow,  

DLR